Other Public Products
Issued by NWS Charleston, SC

Current Version | Previous Version | Text Only | Print | Product List | Glossary Off
Versions: 1 2 3 4 5 6 7 8 9 10 11 12 13 14 15 16 17 18 19 20 21 22 23 24 25 26 27 28 29 30 31 32 33 34 35 36 37 38 39 40 41 42 43 44 45 46 47 48 49 50
634 FPUS82 KCHS 231212 OPUCHS TEST...KCHS/KSAV Gateway Observations...TEST National Weather Service Charleston SC 700 AM EST THU NOV 23 2017 NOTE: "fair" indicates few or no clouds below 12,000 feet with no significant weather and/or obstructions to visibility. SCZ050-WAZ558-NCZ071-TXZ119-213-PAZ071-DCZ001-FLZ074-172-MI076- NYZ176-178-MAZ016-IL014-TNZ027-NJZ106-GAZ044-MD014-231300- ...Gateway Observations for Charleston International... CITY SKY/WX TMP DP RH WIND PRES REMARKS Chas Airport CLOUDY 48 39 71 NE6 30.07R 6HR MIN TEMP: 48; 6HR MAX TEMP: 54; Seattle MOCLDY 56 54 93 SW7 29.87F 6HR MIN TEMP: 56; 6HR MAX TEMP: 60; 6HR PCP: 0.34; Charlotte MOCLDY 38 28 67 NE5 30.13S WCI 34 6HR MIN TEMP: 35; 6HR MAX TEMP: 44; Dallas DFW CLOUDY 38 30 73 SW6 30.17F WCI 33 6HR MIN TEMP: 37; 6HR MAX TEMP: 45; Dallas Love CLOUDY 38 32 79 CALM 30.19F 6HR MIN TEMP: 37; 6HR MAX TEMP: 42; Philladelphia PTCLDY 32 17 54 NW7 30.16S WCI 26 6HR MIN TEMP: 31; 6HR MAX TEMP: 35; Wash National CLOUDY 32 23 69 NW8 30.19S WCI 25 6HR MIN TEMP: 32; 6HR MAX TEMP: 36; Baltimore CLOUDY 29 22 75 W3 30.18R 6HR MIN TEMP: 27; 6HR MAX TEMP: 32; Miami PTCLDY 74 70 87 SE7 29.90R 6HR MIN TEMP: 72; 6HR MAX TEMP: 76; Detroit MOCLDY 28 22 78 S7 30.11F WCI 21 6HR MIN TEMP: 27; 6HR MAX TEMP: 30; Newark PTCLDY 31 18 58 W7 30.12R WCI 24 6HR MIN TEMP: 31; 6HR MAX TEMP: 34; Laguardia PTCLDY 34 20 56 W10 30.11R WCI 26 6HR MIN TEMP: 34; 6HR MAX TEMP: 36; J F K PTCLDY 32 20 61 NW8 30.12R WCI 25 6HR MIN TEMP: 31; 6HR MAX TEMP: 34; Boston Logan PTCLDY 32 20 61 NW6 30.04R WCI 26 6HR MIN TEMP: 32; 6HR MAX TEMP: 37; Ft. Lauderdale MOCLDY 75 70 84 S8 29.89R 6HR MIN TEMP: 72; 6HR MAX TEMP: 76; Chicago O`Hare CLOUDY 34 20 56 SW9 30.05R WCI 27 6HR MIN TEMP: 32; 6HR MAX TEMP: 34; Chicago Midway CLOUDY 34 21 59 SW10 30.06S WCI 26 6HR MIN TEMP: 32; 6HR MAX TEMP: 34; Houston Bush CLEAR 41 36 82 CALM 30.20R 6HR MIN TEMP: 41; 6HR MAX TEMP: 49; Houston Hobby CLEAR 44 38 79 N6 30.19R 6HR MIN TEMP: 43; 6HR MAX TEMP: 52; Nashville CLEAR 28 23 81 CALM 30.18S 6HR MIN TEMP: 26; 6HR MAX TEMP: 32; Atlanta PTCLDY 44 33 65 NE10 30.06R 6HR MIN TEMP: 40; 6HR MAX TEMP: 46; $$ GAZ044-118-TXZ119-213-NCZ071-DCZ001-MDZ014-506-PAZ021-071-NJZ106- NYZ176-178-MAZ106-OHZ011-021-055-MIZ076-KYZ091-ILZ014-INZ047- MNZ060-ONZ431-231300- ...Gateway Observations for Savannah International... CITY SKY/WX TMP DP RH WIND PRES REMARKS Savannah Arpt LGT RAIN 51 45 79 NE7 30.03F 6HR MIN TEMP: 51; 6HR MAX TEMP: 58; 6HR PCP: TRACE; Atlanta PTCLDY 44 33 65 NE10 30.06R 6HR MIN TEMP: 40; 6HR MAX TEMP: 46; Charlotte MOCLDY 38 28 67 NE5 30.13S WCI 34 6HR MIN TEMP: 35; 6HR MAX TEMP: 44; Dallas DFW CLOUDY 38 30 73 SW6 30.17F WCI 33 6HR MIN TEMP: 37; 6HR MAX TEMP: 45; Houston Bush CLEAR 41 36 82 CALM 30.20R 6HR MIN TEMP: 41; 6HR MAX TEMP: 49; Wash National CLOUDY 32 23 69 NW8 30.19S WCI 25 6HR MIN TEMP: 32; 6HR MAX TEMP: 36; Wash Dulles CLOUDY 27 21 78 NW5 30.18S WCI 22 6HR MIN TEMP: 25; 6HR MAX TEMP: 33; Baltimore CLOUDY 29 22 75 W3 30.18R 6HR MIN TEMP: 27; 6HR MAX TEMP: 32; Philadelphia PTCLDY 32 17 54 NW7 30.16S WCI 26 6HR MIN TEMP: 31; 6HR MAX TEMP: 35; Newark PTCLDY 31 18 58 W7 30.12R WCI 24 6HR MIN TEMP: 31; 6HR MAX TEMP: 34; Laguardia PTCLDY 34 20 56 W10 30.11R WCI 26 6HR MIN TEMP: 34; 6HR MAX TEMP: 36; J F K PTCLDY 32 20 61 NW8 30.12R WCI 25 6HR MIN TEMP: 31; 6HR MAX TEMP: 34; Boston PTCLDY 32 20 61 NW6 30.04R WCI 26 6HR MIN TEMP: 32; 6HR MAX TEMP: 37; Pittsburg CLOUDY 22 20 92 CALM 30.15S 6HR MIN TEMP: 22; 6HR MAX TEMP: 28; Akron CLOUDY 26 20 77 S5 30.14F WCI 20 6HR MIN TEMP: 23; 6HR MAX TEMP: 28; Cleveland CLOUDY 30 20 66 S8 30.16F WCI 22 6HR MIN TEMP: 26; 6HR MAX TEMP: 30; Cincinnati MOCLDY 25 24 96 S3 30.15F 6HR MIN TEMP: 22; 6HR MAX TEMP: 28; Columbus PTCLDY 21 20 96 CALM 30.18S Detroit MOCLDY 28 22 78 S7 30.11F WCI 21 6HR MIN TEMP: 27; 6HR MAX TEMP: 30; Chicago O`Hare CLOUDY 34 20 56 SW9 30.05R WCI 27 6HR MIN TEMP: 32; 6HR MAX TEMP: 34; Minneapolis CLOUDY 23 19 85 NW3 29.95R 6HR MIN TEMP: 23; 6HR MAX TEMP: 30; Indianapolis MOCLDY 29 24 82 S5 30.14F WCI 24 6HR MIN TEMP: 28; 6HR MAX TEMP: 30; Toronto Canada CLOUDY 30 18 59 S5 30.08F WCI 25 $$

USA.gov is the U.S. government's official web portal to all federal, state and local government web resources and services.